DW6193 Weather Reports


time (UTC)temp
C
wind
direction
speed
KPH
gust
KPH
rain 1hr
cm
rain 24hr
cm
rain mn
cm
humidity
%
barometer
mb
20260902185028 13 311 1.6 9.7 0.00 0.00 0.00 1009.0
20260902184625 13 259 1.6 11.3 0.00 0.00 0.00 1009.1
20260902184028 13 216 4.8 12.9 0.00 0.00 0.00 1009.0
20260902183526 13 288 6.4 19.3 0.00 0.00 0.00 1008.8
20260902183044 13 218 11.3 20.9 0.00 0.00 0.00 1008.8
20260902182528 13 293 9.7 20.9 0.00 0.00 0.00 1009.1
20260902182026 13 304 11.3 19.3 0.00 0.00 0.00 1009.0
20260902181546 14 141 4.8 22.5 0.00 0.00 0.00 1009.0
20260902181030 13 126 8.0 22.5 0.00 0.00 0.00 1008.8
20260902180527 14 107 17.7 25.7 0.00 0.00 0.00 1008.7
20260902180058 14 145 9.7 25.7 0.00 0.00 0.00 1008.6
20260902175525 15 113 19.3 27.4 0.00 0.00 0.00 1008.3
20260902175028 15 114 20.9 29.0 0.00 0.00 0.00 1008.2
20260902174554 14 103 20.9 29.0 0.00 0.00 0.00 1008.2
20260902174027 14 119 20.9 29.0 0.00 0.00 0.00 1008.2
20260902173527 14 151 16.1 29.0 0.00 0.00 0.00 1008.3
20260902173048 15 141 16.1 29.0 0.00 0.00 0.00 1008.4
20260902172526 15 110 16.1 27.4 0.00 0.00 0.00 1008.1
20260902172026 15 114 16.1 32.2 0.00 0.00 0.00 1008.3
20260902171547 15 111 9.7 33.8 0.00 0.00 0.00 1008.2
20260902171025 15 106 17.7 37.0 0.00 0.00 0.00 1008.3
20260902170527 15 112 20.9 37.0 0.00 0.00 0.00 1008.2
20260902170043 16 108 24.1 37.0 0.00 0.00 0.00 1008.3
20260902165525 16 99 16.1 35.4 0.00 0.00 0.00 1007.9
20260902165026 16 103 19.3 40.2 0.00 0.00 0.00 1008.1
20260902164554 16 108 20.9 40.2 0.00 0.00 0.00 1008.1
20260902164028 16 103 16.1 37.0 0.00 0.00 0.00 1008.0
20260902163529 16 103 20.9 37.0 0.00 0.00 0.00 1008.0
20260902163047 16 103 17.7 38.6 0.00 0.00 0.00 1008.3
20260902162530 16 108 17.7 43.5 0.00 0.00 0.00 1008.1
20260902162026 16 81 24.1 43.5 0.00 0.00 0.00 1008.2
20260902161544 15 115 19.3 41.8 0.00 0.00 0.00 1008.2
20260902161029 15 103 16.1 46.7 0.00 0.00 0.00 1008.2
20260902160530 15 64 19.3 46.7 0.00 0.00 0.00 1008.3
20260902160050 15 101 19.3 37.0 0.00 0.00 0.00 1008.1
20260902155527 15 99 19.3 40.2 0.00 0.00 0.00 1008.2
20260902155030 15 118 17.7 40.2 0.00 0.00 0.00 1008.4
20260902154547 15 115 20.9 38.6 0.00 0.00 0.00 1008.5
20260902154028 15 105 17.7 35.4 0.00 0.00 0.00 1008.5
20260902153528 15 103 17.7 35.4 0.00 0.00 0.00 1008.5
20260902153044 15 130 20.9 33.8 0.00 0.00 0.00 1008.5
20260902152525 15 99 22.5 35.4 0.00 0.00 0.00 1008.7
20260902152025 15 115 22.5 35.4 0.00 0.00 0.00 1008.7
20260902151552 15 105 17.7 30.6 0.00 0.00 0.00 1008.7
20260902151029 15 105 20.9 30.6 0.00 0.00 0.00 1008.8
20260902150526 15 77 14.5 33.8 0.00 0.00 0.00 1008.7
20260902150050 15 49 16.1 33.8 0.00 0.00 0.00 1008.8
20260902145529 15 123 16.1 30.6 0.00 0.00 0.00 1009.0
20260902145026 15 74 16.1 30.6 0.00 0.00 0.00 1008.9
20260902144554 15 183 16.1 30.6 0.00 0.00 0.00 1009.0
20260902144028 15 111 16.1 30.6 0.00 0.00 0.00 1009.1
20260902143525 15 105 16.1 30.6 0.00 0.00 0.00 1009.2
20260902143044 15 111 17.7 27.4 0.00 0.00 0.00 1009.3
20260902142526 15 99 16.1 27.4 0.00 0.00 0.00 1009.2
20260902142025 15 100 17.7 27.4 0.00 0.00 0.00 1009.4
20260902141549 15 44 14.5 22.5 0.00 0.00 0.00 1009.5
20260902141025 15 122 11.3 20.9 0.00 0.00 0.00 1009.7
20260902140524 15 108 14.5 20.9 0.00 0.00 0.00 1009.7
20260902140046 15 111 12.9 19.3 0.00 0.00 0.00 1009.7
20260902135527 15 111 9.7 17.7 0.00 0.00 0.00 1009.8
20260902135024 15 130 11.3 20.9 0.00 0.00 0.00 1009.8
20260902134545 15 134 12.9 20.9 0.00 0.00 0.00 1010.0
20260902134025 15 120 12.9 16.1 0.00 0.00 0.00 1010.1
20260902133529 15 119 11.3 16.1 0.00 0.00 0.00 1010.0
20260902133057 15 117 9.7 14.5 0.00 0.00 0.00 1010.1
20260902132528 15 119 9.7 20.9 0.00 0.00 0.00 1010.2
20260902132028 15 123 12.9 20.9 0.00 0.00 0.00 1010.3
20260902131555 15 108 11.3 17.7 0.00 0.00 0.00 1010.3
20260902131026 15 105 3.2 9.7 0.00 0.00 0.00 1010.4
20260902130525 15 120 1.6 9.7 0.00 0.00 0.00 1010.5
20260902130042 15 128 3.2 8.0 0.00 0.00 0.00 1010.6
20260902125527 15 0 1.6 9.7 0.00 0.00 0.00 1010.6
20260902125026 15 114 1.6 9.7 0.00 0.00 0.00 1010.7
20260902124551 15 131 1.6 11.3 0.00 0.00 0.00 1010.7
20260902124027 15 116 3.2 11.3 0.00 0.00 0.00 1010.8
20260902123524 15 112 3.2 11.3 0.00 0.00 0.00 1011.0
20260902123045 15 120 4.8 8.0 0.00 0.00 0.00 1011.0
20260902122532 15 123 3.2 8.0 0.00 0.00 0.00 1011.0
20260902122025 15 99 3.2 8.0 0.00 0.00 0.00 1011.1
20260902121548 15 103 3.2 6.4 0.00 0.00 0.00 1011.1
20260902121026 15 201 1.6 4.8 0.00 0.00 0.00 1011.1
20260902120526 15 268 0.0 6.4 0.00 0.00 0.00 1011.2
20260902120054 15 227 1.6 8.0 0.00 0.00 0.00 1011.3
20260902115529 15 280 1.6 8.0 0.00 0.00 0.00 1011.1
20260902115029 15 261 0.0 6.4 0.00 0.00 0.00 1011.3
20260902114552 15 268 0.0 6.4 0.00 0.00 0.00 1011.4
20260902114026 15 302 0.0 6.4 0.00 0.00 0.00 1011.4
20260902113550 15 0 0.0 3.2 0.00 0.00 0.00 1011.3
20260902113053 15 0 0.0 12.9 0.00 0.00 0.00 1011.4
20260902112525 15 0 3.2 12.9 0.00 0.00 0.00 1011.4
20260902112026 15 124 3.2 8.0 0.00 0.00 0.00 1011.5
20260902111552 15 162 1.6 8.0 0.00 0.00 0.00 1011.4
20260902111026 15 299 1.6 9.7 0.00 0.00 0.00 1011.5
20260902110524 15 90 3.2 9.7 0.00 0.00 0.00 1011.5
20260902110045 15 234 1.6 6.4 0.00 0.00 0.00 1011.5
20260902105525 15 290 0.0 4.8 0.00 0.00 0.00 1011.5
20260902105028 15 278 0.0 12.9 0.00 0.00 0.00 1011.6
20260902104600 15 99 3.2 12.9 0.00 0.00 0.00 1011.5
20260902104024 15 120 8.0 12.9 0.00 0.00 0.00 1011.5
20260902103530 15 121 6.4 12.9 0.00 0.00 0.00 1011.6
20260902103042 15 114 4.8 9.7 0.00 0.00 0.00 1011.7
20260902102525 15 72 3.2 8.0 0.00 0.00 0.00 1011.7
20260902102025 15 66 3.2 6.4 0.00 0.00 0.00 1011.9
20260902101552 15 355 1.6 8.0 0.00 0.00 0.00 1011.8
20260902101025 15 76 3.2 9.7 0.00 0.00 0.00 1012.1
20260902100526 15 141 1.6 9.7 0.00 0.00 0.00 1012.0
20260902100046 15 268 4.8 9.7 0.00 0.00 0.00 1012.1
20260902095523 15 299 4.8 11.3 0.00 0.00 0.00 1012.0
20260902095025 15 302 3.2 11.3 0.00 0.00 0.00 1012.2
20260902094546 15 255 3.2 9.7 0.00 0.00 0.00 1012.2
20260902094027 15 176 3.2 8.0 0.00 0.00 0.00 1012.2
20260902093524 15 210 1.6 9.7 0.00 0.00 0.00 1012.2
20260902093050 15 236 3.2 11.3 0.00 0.00 0.00 1012.2
20260902092524 15 248 3.2 12.9 0.00 0.00 0.00 1012.4
20260902092025 15 276 6.4 12.9 0.00 0.00 0.00 1012.3
20260902091553 15 280 4.8 16.1 0.00 0.00 0.00 1012.2
20260902091024 15 290 4.8 16.1 0.00 0.00 0.00 1012.2
20260902090531 15 272 4.8 16.1 0.00 0.00 0.00 1012.3
20260902090047 15 272 8.0 14.5 0.00 0.00 0.00 1012.3
20260902085525 15 261 4.8 14.5 0.00 0.00 0.00 1012.3
20260902085024 15 263 4.8 17.7 0.00 0.00 0.00 1012.5
20260902084546 15 293 6.4 17.7 0.00 0.00 0.00 1012.4
20260902084024 15 322 4.8 12.9 0.00 0.00 0.00 1012.5
20260902083525 15 297 6.4 12.9 0.00 0.00 0.00 1012.5
20260902083056 15 0 1.6 12.9 0.00 0.00 0.00 1012.5
20260902082525 15 322 3.2 12.9 0.00 0.00 0.00 1012.4
20260902082027 15 283 1.6 11.3 0.00 0.00 0.00 1012.4
20260902081548 15 283 3.2 12.9 0.00 0.00 0.00 1012.4
20260902081025 15 279 3.2 12.9 0.00 0.00 0.00 1012.3
20260902080524 15 288 3.2 9.7 0.00 0.00 0.00 1012.4
20260902080048 15 286 3.2 9.7 0.00 0.00 0.00 1012.3
20260902075525 15 281 3.2 11.3 0.00 0.00 0.00 1012.5
20260902075026 15 297 1.6 11.3 0.00 0.00 0.00 1012.4
20260902074547 16 293 1.6 9.7 0.00 0.00 0.00 1012.6
20260902074025 15 302 3.2 9.7 0.00 0.00 0.00 1012.4
20260902073527 15 264 3.2 9.7 0.00 0.00 0.00 1012.6
20260902073054 15 291 1.6 8.0 0.00 0.00 0.00 1012.6
20260902072526 15 290 3.2 8.0 0.00 0.00 0.00 1012.6
20260902072027 16 141 1.6 4.8 0.00 0.00 0.00 1012.6
20260902071545 16 99 0.0 4.8 0.00 0.00 0.00 1012.7
20260902071026 15 183 1.6 4.8 0.00 0.00 0.00 1012.7
20260902070528 16 116 0.0 4.8 0.00 0.00 0.00 1012.9
20260902070049 16 0 0.0 6.4 0.00 0.00 0.00 1012.9
20260902065529 16 356 0.0 6.4 0.00 0.00 0.00 1013.0
20260902065027 15 120 1.6 6.4 0.00 0.00 0.00 1013.0
20260902064545 16 0 0.0 8.0 0.00 0.00 0.00 1013.0
20260902064028 16 129 3.2 8.0 0.00 0.00 0.00 1013.1
20260902063526 16 183 1.6 8.0 0.00 0.00 0.00 1013.1
20260902063046 16 116 1.6 11.3 0.00 0.00 0.00 1013.1
20260902062526 16 134 3.2 11.3 0.00 0.00 0.00 1013.1
20260902062024 16 155 3.2 9.7 0.00 0.00 0.00 1013.0
20260902061550 15 141 1.6 9.7 0.00 0.00 0.00 1013.0
20260902061024 15 183 4.8 9.7 0.00 0.00 0.00 1013.2
20260902060523 15 183 1.6 9.7 0.00 0.00 0.00 1013.2
20260902060044 15 183 3.2 9.7 0.00 0.00 0.00 1013.2
20260902055523 15 0 1.6 14.5 0.00 0.00 0.00 1013.4
20260902055025 15 183 3.2 14.5 0.00 0.00 0.00 1013.2
20260902054555 16 309 6.4 14.5 0.00 0.00 0.00 1013.4
20260902054033 16 283 4.8 12.9 0.00 0.00 0.00 1013.3
20260902053530 16 315 4.8 17.7 0.00 0.00 0.00 1013.4
20260902053057 16 295 6.4 17.7 0.00 0.00 0.00 1013.2
20260902052523 16 261 1.6 12.9 0.00 0.00 0.00 1013.2
20260902052023 16 285 4.8 14.5 0.00 0.00 0.00 1013.3
20260902051543 16 268 4.8 14.5 0.00 0.00 0.00 1013.1
20260902051025 16 291 4.8 16.1 0.00 0.00 0.00 1013.1
20260902050526 16 275 4.8 16.1 0.00 0.00 0.00 1013.0
20260902050059 16 311 6.4 16.1 0.00 0.00 0.00 1013.0
20260902045524 16 259 4.8 12.9 0.00 0.00 0.00 1013.0
20260902045028 16 290 4.8 11.3 0.00 0.00 0.00 1012.9
20260902044550 16 319 4.8 11.3 0.00 0.00 0.00 1013.0
20260902044029 16 141 3.2 11.3 0.00 0.00 0.00 1013.1
20260902043526 16 279 3.2 11.3 0.00 0.00 0.00 1013.2
20260902043053 16 286 3.2 11.3 0.00 0.00 0.00 1013.0
20260902042526 16 297 4.8 11.3 0.00 0.00 0.00 1012.9
20260902042025 16 291 1.6 14.5 0.00 0.00 0.00 1013.1
20260902041543 16 261 3.2 20.9 0.00 0.00 0.00 1012.9
20260902041025 16 286 6.4 20.9 0.00 0.00 0.00 1012.9
20260902040528 16 297 4.8 22.5 0.00 0.00 0.00 1012.9
20260902040055 16 305 9.7 22.5 0.00 0.00 0.00 1012.8
20260902035526 16 297 9.7 20.9 0.00 0.00 0.00 1012.8
20260902035023 16 173 6.4 19.3 0.00 0.00 0.00 1012.9
20260902034549 16 292 8.0 19.3 0.00 0.00 0.00 1012.7
20260902034028 16 290 8.0 16.1 0.00 0.00 0.00 1012.7
20260902033527 16 243 9.7 16.1 0.00 0.00 0.00 1012.7
20260902033046 17 288 6.4 19.3 0.00 0.00 0.00 1012.5
20260902032525 17 241 3.2 19.3 0.00 0.00 0.00 1012.6
20260902032025 17 261 9.7 19.3 0.00 0.00 0.00 1012.5
20260902031547 17 292 3.2 14.5 0.00 0.00 0.00 1012.6
20260902031029 17 288 6.4 14.5 0.00 0.00 0.00 1012.5
20260902030525 17 278 4.8 16.1 0.00 0.00 0.00 1012.7
20260902030043 17 55 8.0 16.1 0.00 0.00 0.00 1012.5
20260902025524 17 261 3.2 16.1 0.00 0.00 0.00 1012.7
20260902025027 17 277 6.4 16.1 0.00 0.00 0.00 1012.7
20260902024549 17 293 6.4 16.1 0.00 0.00 0.00 1012.5
20260902024026 17 120 4.8 16.1 0.00 0.00 0.00 1012.5
20260902023530 17 285 3.2 12.9 0.00 0.00 0.00 1012.5
20260902023048 17 284 1.6 12.9 0.00 0.00 0.00 1012.2
20260902022526 17 268 4.8 12.9 0.00 0.00 0.00 1012.4
20260902022033 17 22 3.2 9.7 0.00 0.00 0.00 1012.4
20260902021544 17 275 1.6 9.7 0.00 0.00 0.00 1012.5
20260902021025 18 292 1.6 8.0 0.00 0.00 0.00 1012.4
20260902020526 18 285 3.2 8.0 0.00 0.00 0.00 1012.4
20260902020043 18 311 1.6 12.9 0.00 0.00 0.00 1012.3
20260902015524 18 295 4.8 22.5 0.00 0.00 0.00 1012.3
20260902015026 18 299 4.8 27.4 0.00 0.00 0.00 1012.3
20260902014550 18 338 9.7 27.4 0.00 0.00 0.00 1012.3
20260902014025 18 307 14.5 27.4 0.00 0.00 0.00 1012.2
20260902013524 18 301 11.3 24.1 0.00 0.00 0.00 1012.3
20260902013048 18 304 11.3 24.1 0.00 0.00 0.00 1012.3
20260902012528 18 295 9.7 22.5 0.00 0.00 0.00 1012.3
20260902012028 18 288 11.3 22.5 0.00 0.00 0.00 1012.3
20260902011610 18 279 9.7 19.3 0.00 0.00 0.00 1012.3
20260902011024 18 291 6.4 17.7 0.00 0.00 0.00 1012.3
20260902010524 18 116 6.4 16.1 0.00 0.00 0.00 1012.2
20260902010047 18 283 8.0 16.1 0.00 0.00 0.00 1012.2
20260902005527 18 268 8.0 16.1 0.00 0.00 0.00 1011.9
20260902005025 18 279 4.8 14.5 0.00 0.00 0.00 1012.0
20260902004547 18 311 3.2 8.0 0.00 0.00 0.00 1012.1
20260902004032 18 286 1.6 8.0 0.00 0.00 0.00 1012.2
20260902003523 19 255 0.0 8.0 0.00 0.00 0.00 1012.2
20260902003100 19 201 3.2 8.0 0.00 0.00 0.00 1012.1
20260902002523 20 356 0.0 4.8 0.00 0.00 0.00 1012.1
20260902002027 19 317 1.6 6.4 0.00 0.00 0.00 1012.1
20260902001549 19 299 1.6 6.4 0.00 0.00 0.00 1012.0
20260902001026 19 288 1.6 6.4 0.00 0.00 0.00 1012.1
20260902000529 20 280 1.6 6.4 0.00 0.00 0.00 1012.1
20260902000047 20 311 1.6 6.4 0.00 0.00 0.00 1012.0
20260901235527 21 286 0.0 6.4 0.00 0.00 0.00 1012.0
20260901235025 20 252 1.6 8.0 0.00 0.00 0.00 1012.1
20260901234548 20 99 1.6 8.0 0.00 0.00 0.00 1012.2
20260901234024 20 141 1.6 6.4 0.00 0.00 0.00 1012.2
20260901233528 20 55 0.0 6.4 0.00 0.00 0.00 1012.3
20260901233050 20 166 1.6 6.4 0.00 0.00 0.00 1012.3
20260901232527 20 0 0.0 8.0 0.00 0.00 0.00 1012.3
20260901232030 20 263 1.6 9.7 0.00 0.00 0.00 1012.4
20260901231607 20 291 1.6 9.7 0.00 0.00 0.00 1012.4
20260901231025 20 299 3.2 9.7 0.00 0.00 0.00 1012.4
20260901230526 21 166 1.6 6.4 0.00 0.00 0.00 1012.4
20260901230056 22 141 0.0 4.8 0.00 0.00 0.00 1012.5
20260901225524 22 39 0.0 4.8 0.00 0.00 0.00 1012.5
20260901225024 23 311 0.0 8.0 0.00 0.00 0.00 1012.4
20260901224546 21 124 1.6 8.0 0.00 0.00 0.00 1012.6
20260901224024 21 329 1.6 4.8 0.00 0.00 0.00 1012.6
20260901223527 21 158 0.0 6.4 0.00 0.00 0.00 1012.6
20260901223050 20 201 1.6 6.4 0.00 0.00 0.00 1012.6
20260901222526 21 286 0.0 3.2 0.00 0.00 0.00 1012.7
20260901222029 20 0 0.0 3.2 0.00 0.00 0.00 1012.6
20260901221608 20 0 0.0 3.2 0.00 0.00 0.00 1012.6
20260901221028 21 183 0.0 3.2 0.00 0.00 0.00 1012.6
20260901220533 21 116 0.0 3.2 0.00 0.00 0.00 1012.8
20260901220100 21 0 0.0 3.2 0.00 0.00 0.00 1012.6
20260901215527 20 112 0.0 4.8 0.00 0.00 0.00 1012.5
20260901215025 20 124 0.0 4.8 0.00 0.00 0.00 1012.8
20260901214550 20 0 0.0 4.8 0.00 0.00 0.00 1012.7
20260901214028 20 278 0.0 6.4 0.00 0.00 0.00 1012.7
20260901213525 20 0 1.6 8.0 0.00 0.00 0.00 1012.7
20260901213105 20 319 1.6 8.0 0.00 0.00 0.00 1012.7
20260901212527 20 0 3.2 8.0 0.00 0.00 0.00 1012.7
20260901212029 20 166 0.0 4.8 0.00 0.00 0.00 1012.8
20260901211546 20 64 0.0 3.2 0.00 0.00 0.00 1012.9
20260901211027 20 311 0.0 6.4 0.00 0.00 0.00 1012.9
20260901210530 19 0 0.0 6.4 0.00 0.00 0.00 1012.9
20260901210044 18 295 1.6 6.4 0.00 0.00 0.00 1012.9
20260901205527 19 309 0.0 4.8 0.00 0.00 0.00 1012.8
20260901205029 20 0 0.0 4.8 0.00 0.00 0.00 1012.8
20260901204605 20 0 1.6 4.8 0.00 0.00 0.00 1012.8
20260901204027 21 311 0.0 4.8 0.00 0.00 0.00 1012.7
20260901203528 22 0 0.0 3.2 0.00 0.00 0.00 1012.9
20260901203045 21 107 0.0 3.2 0.00 0.00 0.00 1012.9
20260901202527 20 99 0.0 3.2 0.00 0.00 0.00 1012.7
20260901202024 20 99 0.0 4.8 0.00 0.00 0.00 1012.9
20260901201546 18 39 0.0 4.8 0.00 0.00 0.00 1012.9
20260901201027 18 302 1.6 4.8 0.00 0.00 0.00 1012.9
20260901200530 18 280 0.0 4.8 0.00 0.00 0.00 1012.8
20260901200114 18 0 0.0 4.8 0.00 0.00 0.00 1013.0
20260901195524 18 112 1.6 4.8 0.00 0.00 0.00 1013.0
20260901195026 18 285 1.6 3.2 0.00 0.00 0.00 1013.1
20260901194606 18 141 0.0 6.4 0.00 0.00 0.00 1013.1
20260901194032 18 286 1.6 6.4 0.00 0.00 0.00 1013.2
20260901193528 19 0 1.6 6.4 0.00 0.00 0.00 1013.2
20260901193058 20 295 0.0 6.4 0.00 0.00 0.00 1013.3
20260901192530 20 317 1.6 4.8 0.00 0.00 0.00 1013.2
20260901192026 20 64 0.0 3.2 0.00 0.00 0.00 1013.4
20260901191628 19 243 0.0 4.8 0.00 0.00 0.00 1013.3
20260901191025 18 124 0.0 6.4 0.00 0.00 0.00 1013.5
20260901190528 17 262 1.6 6.4 0.00 0.00 0.00 1013.5
20260901190057 18 0 1.6 6.4 0.00 0.00 0.00 1013.5
20260901185528 17 302 1.6 8.0 0.00 0.00 0.00 1013.5